When you browse on this site, cookies collect data to enhance your experience and personalize the content and advertising you see.
Visit our Privacy Policy to learn more. By continuing to use the site, you agree to this use of cookies and data.
  • In Österreich
  • Länderverzeichnis
  • Für 7 Tage
  • Wassertemperatur
  • Wetterkarte
  • News
  • Widgets
  • user-avatar
    Anmelden

    Stündliche Wetter Zakumachnoe

    Heute, 15 November, Freitag

    Zeit Temperatur Niederschläge Wind Luftdruck Luftfeuchtigkeit
    00:00 -10°C° 0 mm 5 m/S 758 mmHg 65%
    01:00 -10°C° 0 mm 5 m/S 758 mmHg 65%
    02:00 -10°C° 0 mm 5 m/S 759 mmHg 65%
    03:00 -11°C° 0 mm 5 m/S 759 mmHg 65%
    04:00 -10°C° 0 mm 4 m/S 759 mmHg 66%
    05:00 -10°C° 0 mm 4 m/S 760 mmHg 65%
    06:00 -10°C° 0 mm 4 m/S 760 mmHg 65%
    07:00 -10°C° 0 mm 4 m/S 760 mmHg 65%
    08:00 -9°C° 0 mm 3 m/S 760 mmHg 62%
    09:00 -8°C° 0 mm 3 m/S 761 mmHg 58%
    10:00 -7°C° 0 mm 2 m/S 761 mmHg 55%
    11:00 -6°C° 0 mm 2 m/S 761 mmHg 51%
    12:00 -3°C° 0 mm 1 m/S 761 mmHg 47%
    13:00 -3°C° 0 mm 1 m/S 760 mmHg 44%
    14:00 -3°C° 0 mm 1 m/S 760 mmHg 45%
    15:00 -2°C° 0 mm 1 m/S 760 mmHg 47%
    16:00 -2°C° 0 mm 1 m/S 760 mmHg 48%
    17:00 -3°C° 0 mm 1 m/S 760 mmHg 49%
    18:00 -3°C° 0 mm 1 m/S 760 mmHg 50%
    19:00 -5°C° 0 mm 2 m/S 760 mmHg 51%
    20:00 -5°C° 0 mm 2 m/S 760 mmHg 52%
    21:00 -5°C° 0 mm 2 m/S 760 mmHg 52%
    22:00 -6°C° 0 mm 3 m/S 760 mmHg 53%
    23:00 -6°C° 0 mm 3 m/S 760 mmHg 55%

    Morgen, 16 November, Samstag

    Zeit Temperatur Niederschläge Wind Luftdruck Luftfeuchtigkeit
    00:00 -6°C° 0 mm 3 m/S 760 mmHg 57%
    01:00 -6°C° 0 mm 3 m/S 759 mmHg 59%
    02:00 -6°C° 0 mm 3 m/S 759 mmHg 62%
    03:00 -6°C° 0 mm 3 m/S 760 mmHg 64%
    04:00 -6°C° 0 mm 3 m/S 760 mmHg 67%
    05:00 -6°C° 0 mm 3 m/S 759 mmHg 69%
    06:00 -6°C° 0 mm 3 m/S 759 mmHg 71%
    07:00 -6°C° 0 mm 3 m/S 759 mmHg 74%
    08:00 -4°C° 0 mm 4 m/S 759 mmHg 70%
    09:00 -3°C° 0 mm 4 m/S 759 mmHg 66%
    10:00 -2°C° 0 mm 4 m/S 759 mmHg 62%
    11:00 -1°C° 0 mm 4 m/S 759 mmHg 60%
    12:00 0°C° 0 mm 4 m/S 759 mmHg 57%
    13:00 +1°C° 0 mm 4 m/S 759 mmHg 55%
    14:00 +1°C° 0 mm 4 m/S 758 mmHg 59%
    15:00 0°C° 0 mm 4 m/S 758 mmHg 63%
    16:00 -1°C° 0 mm 4 m/S 758 mmHg 67%
    17:00 -1°C° 0 mm 4 m/S 758 mmHg 70%
    18:00 -2°C° 0 mm 4 m/S 758 mmHg 72%
    19:00 -2°C° 0 mm 4 m/S 758 mmHg 75%
    20:00 -1°C° 0 mm 3 m/S 758 mmHg 76%
    21:00 -1°C° 0 mm 3 m/S 758 mmHg 77%
    22:00 -1°C° 0 mm 3 m/S 758 mmHg 78%
    23:00 -1°C° 0 mm 3 m/S 758 mmHg 78%

    übermorgen, 17 November, Sonntag

    Zeit Temperatur Niederschläge Wind Luftdruck Luftfeuchtigkeit
    00:00 -1°C° 0 mm 3 m/S 758 mmHg 78%
    01:00 -1°C° 0 mm 3 m/S 758 mmHg 78%
    02:00 -1°C° 0 mm 3 m/S 757 mmHg 78%
    03:00 -1°C° 0 mm 3 m/S 757 mmHg 77%
    04:00 -1°C° 0 mm 3 m/S 757 mmHg 77%
    05:00 -2°C° 0 mm 3 m/S 757 mmHg 76%
    06:00 -2°C° 0 mm 3 m/S 757 mmHg 75%
    07:00 -2°C° 0 mm 3 m/S 756 mmHg 74%
    08:00 -2°C° 0 mm 4 m/S 756 mmHg 67%
    09:00 -1°C° 0 mm 4 m/S 756 mmHg 60%
    10:00 0°C° 0 mm 5 m/S 756 mmHg 53%
    11:00 0°C° 0 mm 5 m/S 756 mmHg 50%
    12:00 +1°C° 0 mm 5 m/S 755 mmHg 47%
    13:00 +3°C° 0 mm 4 m/S 755 mmHg 44%
    14:00 +1°C° 0 mm 5 m/S 755 mmHg 46%
    15:00 0°C° 0 mm 5 m/S 754 mmHg 48%
    16:00 -1°C° 0 mm 5 m/S 754 mmHg 50%
    17:00 -1°C° 0 mm 5 m/S 754 mmHg 53%
    18:00 -2°C° 0 mm 5 m/S 753 mmHg 55%
    19:00 -2°C° 0 mm 4 m/S 753 mmHg 58%
    20:00 -3°C° 0 mm 4 m/S 753 mmHg 60%
    21:00 -3°C° 0 mm 4 m/S 753 mmHg 61%
    22:00 -3°C° 0 mm 4 m/S 753 mmHg 63%
    23:00 -3°C° 0 mm 4 m/S 753 mmHg 66%

    18 November, Montag

    Zeit Temperatur Niederschläge Wind Luftdruck Luftfeuchtigkeit
    00:00 -3°C° 0 mm 4 m/S 752 mmHg 70%
    01:00 -2°C° 0 mm 3 m/S 752 mmHg 73%
    02:00 -2°C° 0 mm 3 m/S 752 mmHg 75%
    03:00 -2°C° 0 mm 3 m/S 751 mmHg 77%
    04:00 -2°C° 0 mm 3 m/S 751 mmHg 79%
    05:00 -3°C° 0 mm 4 m/S 751 mmHg 81%
    06:00 -3°C° 0 mm 4 m/S 751 mmHg 82%
    07:00 -3°C° 0 mm 4 m/S 751 mmHg 84%
    08:00 -3°C° 0 mm 4 m/S 750 mmHg 82%
    09:00 -2°C° 0 mm 4 m/S 750 mmHg 80%
    10:00 -2°C° 0 mm 5 m/S 750 mmHg 78%
    11:00 -1°C° 0 mm 5 m/S 749 mmHg 76%
    12:00 0°C° 0 mm 5 m/S 749 mmHg 73%
    13:00 -1°C° 0 mm 6 m/S 748 mmHg 71%
    14:00 0°C° 0 mm 5 m/S 748 mmHg 71%
    15:00 -1°C° 0 mm 5 m/S 747 mmHg 72%
    16:00 -1°C° 0 mm 5 m/S 746 mmHg 73%
    17:00 -2°C° 0 mm 6 m/S 746 mmHg 65%
    18:00 -2°C° 0 mm 6 m/S 745 mmHg 58%
    19:00 -2°C° 0 mm 7 m/S 745 mmHg 50%
    20:00 -3°C° 0 mm 7 m/S 745 mmHg 53%
    21:00 -3°C° 0 mm 6 m/S 744 mmHg 56%
    22:00 -3°C° 0 mm 6 m/S 744 mmHg 60%
    23:00 -4°C° 0 mm 6 m/S 744 mmHg 67%

    19 November, Dienstag

    Zeit Temperatur Niederschläge Wind Luftdruck Luftfeuchtigkeit
    00:00 -4°C° 0 mm 6 m/S 743 mmHg 74%
    01:00 -4°C° 0 mm 6 m/S 743 mmHg 82%
    02:00 -4°C° 0.1 mm 6 m/S 743 mmHg 85%
    03:00 -4°C° 0.1 mm 6 m/S 742 mmHg 87%
    04:00 -4°C° 0.1 mm 6 m/S 742 mmHg 90%
    05:00 -3°C° 0 mm 6 m/S 742 mmHg 90%
    06:00 -3°C° 0 mm 6 m/S 742 mmHg 90%
    07:00 -2°C° 0 mm 6 m/S 742 mmHg 90%
    08:00 -4°C° 0.2 mm 6 m/S 742 mmHg 89%
    09:00 -6°C° 0.2 mm 7 m/S 742 mmHg 88%
    10:00 -8°C° 0.2 mm 7 m/S 742 mmHg 86%
    11:00 -9°C° 0.1 mm 7 m/S 742 mmHg 83%
    12:00 -12°C° 0.1 mm 8 m/S 743 mmHg 80%
    13:00 -13°C° 0.1 mm 8 m/S 743 mmHg 77%
    14:00 -16°C° 0 mm 8 m/S 744 mmHg 73%
    15:00 -17°C° 0 mm 8 m/S 744 mmHg 70%
    16:00 -19°C° 0 mm 8 m/S 745 mmHg 66%
    17:00 -21°C° 0 mm 8 m/S 746 mmHg 66%
    18:00 -23°C° 0 mm 8 m/S 747 mmHg 65%
    19:00 -24°C° 0 mm 8 m/S 748 mmHg 65%
    20:00 -26°C° 0 mm 8 m/S 748 mmHg 65%
    21:00 -26°C° 0 mm 8 m/S 748 mmHg 66%
    22:00 -27°C° 0 mm 8 m/S 749 mmHg 66%
    23:00 -27°C° 0 mm 8 m/S 749 mmHg 66%

    20 November, Mittwoch

    Zeit Temperatur Niederschläge Wind Luftdruck Luftfeuchtigkeit
    00:00 -27°C° 0 mm 7 m/S 749 mmHg 66%
    01:00 -27°C° 0 mm 7 m/S 750 mmHg 66%
    02:00 -27°C° 0 mm 7 m/S 750 mmHg 67%
    03:00 -27°C° 0 mm 7 m/S 750 mmHg 67%
    04:00 -27°C° 0 mm 7 m/S 750 mmHg 67%
    05:00 -27°C° 0 mm 6 m/S 750 mmHg 68%
    06:00 -27°C° 0 mm 6 m/S 750 mmHg 68%
    07:00 -26°C° 0 mm 6 m/S 750 mmHg 69%
    08:00 -25°C° 0 mm 5 m/S 750 mmHg 68%
    09:00 -24°C° 0 mm 5 m/S 750 mmHg 67%
    10:00 -22°C° 0 mm 5 m/S 750 mmHg 65%
    11:00 -22°C° 0 mm 5 m/S 749 mmHg 63%
    12:00 -21°C° 0 mm 5 m/S 749 mmHg 61%
    13:00 -20°C° 0 mm 5 m/S 749 mmHg 59%
    14:00 -20°C° 0 mm 5 m/S 749 mmHg 60%
    15:00 -20°C° 0 mm 5 m/S 749 mmHg 60%
    16:00 -20°C° 0 mm 5 m/S 749 mmHg 61%
    17:00 -21°C° 0 mm 6 m/S 749 mmHg 64%
    18:00 -22°C° 0 mm 6 m/S 750 mmHg 68%
    19:00 -24°C° 0 mm 7 m/S 750 mmHg 71%
    20:00 -24°C° 0 mm 7 m/S 751 mmHg 68%
    21:00 -25°C° 0 mm 7 m/S 752 mmHg 65%
    22:00 -25°C° 0 mm 7 m/S 752 mmHg 61%
    23:00 -26°C° 0 mm 7 m/S 753 mmHg 63%
    Mehr zeigen